Location: Tom
(33.0437°N, 96.9452°W)
Time: 14:39:54
(UTC-06:00)

N. Korean satellite - Pass Details

Date: 24 January 2019
Orbit: 456 x 510 km, 97.2° (Epoch: 20 February)

Event Time Altitude Azimuth Distance (km) Brightness Sun altitude
Rises 06:41:40 0° 9° (N) 2,598 10.2 -10.0°
Reaches altitude 10° 06:43:47 10° 7° (N) 1,703 9.2 -9.5°
Maximum altitude 06:47:26 75° 283° (WNW) 513 6.5 -8.8°
Drops below altitude 10° 06:51:00 10° 197° (SSW) 1,661 9.3 -8.1°
Sets 06:53:02 0° 196° (SSW) 2,527 10.2 -7.7°
